THORAD DELTA 1 DEB, 8162

Orbit data source: Space-Track

THORAD DELTA 1 DEB, 8162 is space debris in SSO originally from a launch on Fri, 15 Nov 1974 UTC launched from the Air Force Western Test Range (AFWTR). Debris objects in space refer to the collection of defunct objects orbiting the Earth. Examples of debris include non-operational satellites, rocket bodies, and fragments generated from explosions, collisions, or faulty payload assembly.

Loading next visibility...
Identifier
8162, 1974-089AC
Orbit
SSO
Country
Flag of USUS
Related business
Manufacturer
Unknown
Mission
Spacecraft
Bus & Motor
Unknown
Mass
Unknown
Launch date (UTC)
1974-11-15 (51 years ago)
Launch vehicle
Unknown
Launch site
Air Force Western Test Range (AFWTR)
Object type
Payload
Rocket body
Debris
Shape & HBR
Unknown shape, 0.1 m
Radar Cross Section
Small (<0.1 m²)

Expand to show TLE details & history
Last TLE update: 13 hours ago

TLE from 13 hours ago
0 THORAD DELTA 1 DEB
1 08162U 74089AC  26125.09299334  .00001088  00000-0  70636-2 0  9991
2 08162 100.8475 357.2466 0147885 289.6478 230.0554 12.50709156314445
Epoch: 2026-05-05T02:13Z
TLE epoch observation values (Epoch: 2026-05-05T02:13:54.624Z)
Latitude
21.18604°
Longitude
-74.96521°
Altitude
1,539.302 km
Speed
7.064 km/s
True Right ascension
12h 05m 56s
True Declination
21° 04' 55"
Sunlit
Object was in daylight at epoch
Visualization orbit readout
Latitude
Unknown
Longitude
Unknown
Altitude
Unknown
Speed
Unknown
Apparent Right ascension
Unknown
Apparent Declination
Unknown
Sunlit
N/A
Visualization observer readout
Local Sidereal Time
23:29:55
Azimuth
Unknown
Elevation
Unknown
Doppler factor
Unknown
Orbital elements
Apogee altitude
1,574.924 km
Perigee altitude
1,343.124 km
Semi-major axis
7,837.161 km
Eccentricity
0.01479
Inclination
100.8475°
RAAN
357.2466°
Arg. of periapsis
289.6478°
True anomaly
228.77153°
Mean anomaly
230.0554°
Eccentric anomaly
229.41194°
Mean motion
3.12828 °/min
Orbital period
115.08 mins
BSTAR
0.0070636
Loading maneuver chart data...
Computing Atmospheric mass density...

Documentation

Showing up to 5 results
|